Location: Ferchesar
(52.6477°N, 12.4298°E)
Time: 10:51:30
(UTC+01:00)

AO-73 - Pass Details

Date: 27 October 2021
Orbit: 581 x 661 km, 97.6° (Epoch: 28 November)

Event Time Altitude Azimuth Distance (km) Brightness Sun altitude
Rises 06:54:12 0° 6° (N) 2,824 ? -10.2°
Reaches altitude 10° 06:56:31 10° 356° (N) 1,925 ? -9.8°
Maximum altitude 07:00:10 31° 295° (WNW) 1,065 ? -9.3°
Drops below altitude 10° 07:03:52 10° 234° (SW) 1,942 ? -8.7°
Sets 07:06:14 0° 224° (SW) 2,854 ? -8.4°
